RH
24 24 25 27 27 29 32 35 36 34 38 40 38 38 42 44 48 45 44 42 45 49 51 52 56 57 60 56 56 65 64 47 41 39 38 36 33 30 28 26 21 20 23 26
28 28 23 27 29 32 32 34 34 33 36 41 38 40 43 45 46 42 41 40 41 46 50 50 54 54 56 60 65 69 60 59 55 49 45 42 41 38 35 32 29 27 25 26
30 25 25 30 32 33 30 33 32 29 33 42 39 39 44 44 48 46 38 36 40 46 42 42 50 51 52 56 57 60 61 64 64 61 56 52 54 44 37 33 32 31 32 35
29 28 27 29 31 31 34 29 29 32 37 41 41 41 42 42 39 35 34 31 41 46 35 36 43 45 47 48 51 57 64 68 68 68 65 62 53 46 37 36 37 38 40 43
26 27 30 33 30 29 30 28 28 29 41 41 39 40 35 41 31 23 25 27 42 44 33 32 35 40 42 42 44 49 59 65 68 69 72 68 57 51 41 40 40 45 47 48
23 28 26 26 31 31 34 34 34 39 43 44 38 40 31 29 24 23 26 27 37 34 29 32 35 39 39 39 40 44 50 57 63 68 74 76 64 56 42 43 46 53 55 53
24 27 27 25 29 34 33 35 44 53 51 43 42 41 30 26 21 24 26 28 34 36 27 28 29 31 33 36 38 40 45 51 56 60 69 77 75 68 43 44 52 59 57 58
24 28 26 26 25 26 31 32 44 48 46 43 43 37 29 22 21 24 29 30 30 32 27 26 27 29 29 31 33 39 42 48 52 56 62 72 73 68 52 47 51 58 60 63
22 22 21 23 24 27 30 33 36 45 48 46 40 33 28 24 23 26 28 30 30 28 25 25 26 26 27 28 32 37 40 45 50 52 58 65 67 66 57 49 52 58 59 66
20 24 20 21 24 28 30 33 42 47 53 45 39 35 30 26 22 23 26 31 31 30 25 25 24 26 26 28 30 34 38 43 49 49 51 59 67 72 67 56 51 57 60 66
19 21 21 23 22 23 31 35 42 46 47 39 38 34 30 26 23 23 24 28 26 27 28 26 26 26 26 26 25 28 32 40 47 48 51 55 60 70 73 62 54 55 60 66
18 25 27 20 20 20 22 30 34 43 43 43 38 33 27 27 29 28 29 27 28 27 27 27 29 29 28 27 25 27 33 37 45 48 50 55 63 64 68 69 66 57 57 64
20 27 28 23 22 23 24 28 34 41 41 39 38 30 29 29 34 36 35 30 28 27 28 26 29 30 30 29 28 28 31 36 42 44 48 51 54 60 64 72 76 71 62 63
24 25 20 20 15 22 25 26 30 32 42 34 30 29 28 27 33 39 39 36 32 26 24 24 28 32 32 32 32 33 33 36 37 40 44 47 51 57 60 64 73 77 71 64
33 28 25 19 18 18 17 20 26 28 26 31 27 30 28 28 31 36 41 41 37 32 29 27 24 27 31 33 36 36 37 38 39 38 39 44 47 52 57 59 65 73 76 72
39 31 30 31 24 23 22 20 23 25 27 28 28 28 28 34 38 40 43 43 42 37 34 28 24 26 30 34 36 38 39 41 42 42 41 43 48 51 54 57 63 68 73 72
42 42 38 31 30 31 35 24 23 24 26 26 31 28 33 38 40 43 45 46 44 39 36 30 28 28 30 32 35 39 42 44 46 45 43 44 48 50 52 56 59 64 70 70
53 45 46 48 43 52 24 25 22 24 26 26 27 31 34 38 44 47 47 45 42 39 36 35 34 31 31 33 34 36 44 49 54 53 49 49 50 53 56 59 61 63 67 69
65 55 63 60 49 42 37 32 30 30 31 29 30 35 37 39 42 43 45 44 41 40 39 39 39 38 37 37 36 37 40 45 49 57 62 57 56 56 59 63 69 67 71 69
69 70 65 66 59 53 38 38 34 33 36 38 39 41 42 44 45 45 46 47 47 46 45 44 42 39 37 35 35 37 42 47 53 54 57 64 62 59 62 68 70 72 71 72
72 74 78 74 66 58 49 49 47 47 35 41 43 45 47 49 48 50 51 51 52 50 48 46 44 44 43 43 44 45 49 51 52 55 58 62 69 73 74 73 77 76 74 75
64 69 75 73 77 74 56 54 51 47 50 49 51 53 56 55 54 53 53 52 51 51 53 52 50 50 50 49 48 48 50 52 53 56 60 62 62 66 72 77 77 78 81 82
69 67 65 65 64 64 67 68 62 58 58 60 59 60 59 58 57 54 53 52 52 50 50 52 53 53 54 55 55 55 57 56 58 60 63 66 69 69 71 78 81 79 82 84
62 70 78 71 67 66 65 66 68 69 68 65 66 65 66 63 62 61 61 58 58 56 55 53 52 52 55 57 60 61 61 61 63 65 65 65 66 67 70 73 75 78 81 83
66 72 76 73 71 78 77 75 74 71 69 70 69 69 71 70 69 66 63 61 59 59 58 56 55 53 52 50 49 47 46 45 47 48 50 55 60 65 67 70 73 77 79 79
72 75 73 72 72 77 81 83 84 84 82 80 80 78 75 74 72 70 67 65 64 63 62 61 60 58 55 53 52 50 51 50 49 48 48 49 52 55 58 59 61 69 75 85